Hourly Data Report for August 13, 2020

LYTTON RCS
BRITISH COLUMBIA
Current Station Operator: ECCC - MSC

50°13'28.000" N
121°34'55.000" W
225.00 m
1114746
71765
VLY

Download Data

Hourly Data (August 2020)
Hourly Data Report for August 13, 2020
TIME Temp Definition
°C
Dew Point Definition
°C
Rel Hum Definition
%
Wind Dir Definition
10's deg

Wind Spd Definition
km/h
Visibility Definition
km
Stn Press Definition
kPa
Hmdx Definition


Wind Chill Definition


Weather Definition


00:00 16.2 6.3 52 18 29   98.90     LegendNANA
01:00 16.0 6.6 54 19 25   98.91     LegendNANA
02:00 15.5 7.2 58 19 25   98.92     LegendNANA
03:00 15.0 7.0 59 18 29   98.94     LegendNANA
04:00 14.8 7.2 60 17 31   99.01     LegendNANA
05:00 14.5 7.1 61 18 20   99.05     LegendNANA
06:00 14.9 7.0 59 17 23   99.12     LegendNANA
07:00 15.1 7.1 59 18 16   99.14     LegendNANA
08:00 16.2 6.9 54 17 25   99.15     LegendNANA
09:00 18.4 6.8 47 18 25   99.11     LegendNANA
10:00 20.2 5.9 39 18 28   99.07     LegendNANA
11:00 22.0 5.4 34 18 25   98.99     LegendNANA
12:00 23.6 5.7 31 18 30   98.89     LegendNANA
13:00 25.0 5.7 29 18 30   98.86 25   LegendNANA
14:00 25.1 5.5 28 18 37   98.86 25   LegendNANA
15:00 25.1 5.4 28 18 33   98.83 25   LegendNANA
16:00 25.0 5.3 28 19 27   98.82     LegendNANA
17:00 23.1 5.3 31 19 22   98.85     LegendNANA
18:00 22.3 5.7 34 19 23   98.89     LegendNANA
19:00 21.5 6.4 37 19 24   98.93     LegendNANA
20:00 20.7 6.7 40 19 27   99.03     LegendNANA
21:00 19.7 7.2 44 20 28   99.11     LegendNANA
22:00 19.0 7.5 47 19 28   99.17     LegendNANA
23:00 18.4 7.6 49 19 28   99.20     LegendNANA

Notes on Data Quality.

Legend

  • E = Estimated
  • M = Missing
  • NA = Not Available*
  • [empty] = Indicates an unobserved value
Date modified: